Back to catalog

HULIANWANG DIGUI-23

AliveCommunicationsPO
NORAD 63690·PAYLOAD·🇨🇳 China

Launched Apr 28, 2025 from Wenchang Space Launch Site

Loading…

Next Passes (next 24 hours)

TLE

FreshSource: Space-Track

Epoch: Sep 14, 2026, 13:54 UTC

1 63690U 25086D   26257.57959944  .00000037  00000-0  51267-4 0  9994
2 63690  86.5026 283.1530 0001950  81.2805 278.8550 13.24413650 66695

Track HULIANWANG DIGUI-23 in real time with AllMySat

Download on the App Store